TimeEST,TemperatureF,Dew PointF,Humidity,Sea Level PressureIn,VisibilityMPH,Wind Direction,Wind SpeedMPH,Gust SpeedMPH,PrecipitationIn,Events,Conditions,WindDirDegrees,DateUTC
12:52 AM,44.1,39.9,85,29.44,10.0,West,12.7,20.7,N/A,,Mostly Cloudy,280,2012-12-19 05:52:00
1:04 AM,44.6,39.2,81,29.44,10.0,West,13.8,-,N/A,,Overcast,280,2012-12-19 06:04:00
1:52 AM,44.1,39.0,82,29.44,10.0,WNW,12.7,-,N/A,,Overcast,290,2012-12-19 06:52:00
2:08 AM,44.6,37.4,76,29.44,10.0,WNW,11.5,23.0,N/A,,Overcast,290,2012-12-19 07:08:00
2:52 AM,43.0,37.0,80,29.45,10.0,WNW,11.5,-,N/A,,Overcast,290,2012-12-19 07:52:00
3:52 AM,42.1,35.1,76,29.46,10.0,West,15.0,-,N/A,,Overcast,280,2012-12-19 08:52:00
4:52 AM,41.0,33.1,73,29.48,10.0,West,12.7,23.0,N/A,,Overcast,280,2012-12-19 09:52:00
5:52 AM,41.0,32.0,70,29.49,10.0,WNW,15.0,21.9,N/A,,Overcast,290,2012-12-19 10:52:00
6:52 AM,41.0,30.9,67,29.50,10.0,WNW,12.7,21.9,N/A,,Overcast,290,2012-12-19 11:52:00
7:52 AM,41.0,30.9,67,29.52,10.0,NW,17.3,28.8,N/A,,Overcast,310,2012-12-19 12:52:00
8:43 AM,42.8,30.2,61,29.53,10.0,NW,15.0,25.3,N/A,,Overcast,310,2012-12-19 13:43:00
8:52 AM,41.0,30.9,67,29.54,10.0,NW,18.4,25.3,N/A,,Mostly Cloudy,320,2012-12-19 13:52:00
9:52 AM,43.0,30.9,62,29.55,10.0,NW,16.1,28.8,N/A,,Overcast,310,2012-12-19 14:52:00
10:52 AM,43.0,30.9,62,29.57,10.0,NW,15.0,28.8,N/A,,Overcast,320,2012-12-19 15:52:00
11:11 AM,42.8,30.2,61,29.57,10.0,NW,18.4,28.8,N/A,,Overcast,320,2012-12-19 16:11:00
11:52 AM,44.1,30.9,60,29.58,10.0,NW,18.4,26.5,N/A,,Overcast,310,2012-12-19 16:52:00
12:52 PM,44.1,30.0,58,29.62,10.0,NW,12.7,20.7,N/A,,Overcast,320,2012-12-19 17:52:00
1:52 PM,46.0,30.0,54,29.64,10.0,NNW,17.3,24.2,N/A,,Overcast,330,2012-12-19 18:52:00
2:52 PM,45.0,30.0,56,29.69,10.0,NNW,18.4,29.9,N/A,,Overcast,330,2012-12-19 19:52:00
3:52 PM,44.1,28.9,55,29.72,10.0,NNW,15.0,21.9,N/A,,Overcast,330,2012-12-19 20:52:00
4:52 PM,43.0,28.9,58,29.77,10.0,NNW,20.7,26.5,N/A,,Overcast,330,2012-12-19 21:52:00
5:52 PM,42.1,28.9,60,29.81,10.0,NNW,17.3,25.3,N/A,,Overcast,330,2012-12-19 22:52:00
6:52 PM,42.1,28.9,60,29.87,10.0,NNW,15.0,25.3,N/A,,Overcast,330,2012-12-19 23:52:00
7:52 PM,41.0,28.9,62,29.91,10.0,NNW,15.0,21.9,N/A,,Overcast,340,2012-12-20 00:52:00
8:52 PM,39.9,28.9,65,29.93,10.0,NNW,9.2,19.6,N/A,,Mostly Cloudy,340,2012-12-20 01:52:00
9:52 PM,39.0,28.9,67,29.96,10.0,North,9.2,-,N/A,,Scattered Clouds,350,2012-12-20 02:52:00
10:52 PM,39.0,28.9,67,29.99,10.0,NW,8.1,-,N/A,,Overcast,320,2012-12-20 03:52:00
11:52 PM,39.0,28.9,67,30.00,10.0,NNW,11.5,-,N/A,,Mostly Cloudy,330,2012-12-20 04:52:00